Regional Weather Roundup
Issued by NWS Mobile, AL

Home | Current Version | Previous Version | Text Only | Print | Product List | Glossary On
Versions: 1 2 3 4 5 6 7 8 9 10 11 12 13 14 15 16 17 18 19 20 21 22 23 24 25 26 27 28
000
ASUS44 KMOB 231013
RWRMOB
REGIONAL WEATHER ROUNDUP
NATIONAL WEATHER SERVICE MOBILE AL
400 AM CST TUE JAN 23 2018

NOTE: "FAIR" INDICATES FEW OR NO CLOUDS BELOW 12,000 FEET WITH NO
      SIGNIFICANT WEATHER AND/OR OBSTRUCTIONS TO VISIBILITY.

  * THESE STATIONS ARE PART OF THE UNIVERSITY OF SOUTH ALABAMA
    MESONET AND ARE NOT UNDER NWS OR FAA QUALITY CONTROL.

ALZ061>064-231100-
COASTAL ALABAMA

CITY           SKY/WX    TMP DP  RH WIND       PRES   REMARKS
MOBILE REG APT FAIR      49  30  48 NW6       30.05R
BROOKLEY FIELD FAIR      48  32  53 NW8       30.06R
USA CAMPUS*    NOT AVBL
DOG RIVER*     NOT AVBL


CITY           SKY/WX    TMP DP  RH WIND       PRES   REMARKS
GULF SHORES    FAIR      49  34  56 NW7       30.04R

$$

ALZ051>060-231100-
INTERIOR SOUTHWEST AND SOUTH CENTRAL ALABAMA

CITY           SKY/WX    TMP DP  RH WIND       PRES   REMARKS
GREENVILLE     FAIR      50  30  46 NW6       30.01R
EVERGREEN      FAIR      45  36  70 CALM      30.03R
ATMORE*          N/A    N/A N/A N/A NW5         N/A
ANDALUSIA/OPP  FAIR      54  31  41 W13       30.01R
ANDALUSIA*       N/A     50  32  50 NW7       30.01R
FLORALA APT    FAIR      54  30  40 VRB3      30.03R
FLORALA*         N/A     54  34  47 SW12      30.70R

$$

FLZ001>006-231100-
WESTERN FLORIDA PANHANDLE

CITY           SKY/WX    TMP DP  RH WIND       PRES   REMARKS
PENSACOLA      FAIR      52  36  54 NW13      30.03R
NAS PENSACOLA  FAIR      52  37  56 N8        30.02R
MILTON         FAIR      50  35  56 NW7       30.03R
WHTNG S FIELD  FAIR      52  35  52 NW8       30.03R


CITY           SKY/WX    TMP DP  RH WIND       PRES   REMARKS
JAY*             N/A     50  32  50 NW8       30.04R
DUKE FIELD     FAIR      52  42  71 NW6       30.01R
CRESTVIEW      FAIR      53  36  52 NW12      30.03R
VALPARAISO     PTCLDY    54  41  60 NW13      30.00R
DESTIN         FAIR      58  43  57 NW13      30.01R

$$

MSZ076-079-231100-
INTERIOR SOUTHEAST MISSISSIPPI

CITY           SKY/WX    TMP DP  RH WIND       PRES   REMARKS
LEAKESVILLE*     N/A     46  30  53 W6        30.06R
AGRICOLA*        N/A     48  30  49 NW5       30.04R

$$

MARINE OBSERVATIONS

STATION/POSITION TIME  TEMP    WIND        PRES    WAVE
                       AIR SEA DIR/SP/G            HT/PER
                 (UTC) (F)     (DEG/KT/KT) (MB)    (FT/S)
PASCAGOULA       0942   50     340/  9/ 12 1017.4R
PETIT BOIS ISLND 0942   53     330/ 13/ 16 1018.3R
GRAND BAY        0845   53     330/ 12     1018.0R
KATRINA CUT      0930   48     330/ 14     1017.6R
CEDAR POINT      0930   51     340/ 10     1016.9S
E DAUPHIN ISLAND 0900   52     310/ 13/ 14 1016.7R
MIDDLE BAY LIGHT 0930   52     340/ 15     1016.6S
USCG MOBILE BAY  0942   51 53  350/  4/  6 1017.5R
STATE DOCKS      0942   50 50              1017.3R
MEAHER PARK      0930   50     350/  3     1017.6R
WEEKS BAY        0845   51                 1016.0S
FORT MORGAN      0942   52     350/ 14/ 15   N/A
12 S ORANGE BCH  NOT AVBL
PENSACOLA BAY    0942   54 51  350/  5/ 10 1016.9R
64 S DAUPHIN ISL 1000   61 67  340/ 21/ 27 1018.2
67 S FORT MORGAN 0930   61                 1017.6R

$$

SELECTED LOCATIONS ACROSS THE REGION

CITY           SKY/WX    TMP DP  RH WIND       PRES   REMARKS
NEW ORLEANS    FAIR      50  35  56 NW9       30.10R
GULFPORT       FAIR      50  30  46 NW12      30.06R
PASCAGOULA AP  FAIR      50  29  44 NW6       30.05R
PASCAGOULA*      N/A     50  32  50 N7          N/A
HATTIESBURG    FAIR      48  29  47 W6        30.08R
LAUREL         FAIR      44  29  55 W7        30.07S
MERIDIAN       FAIR      48  29  47 W9G20     30.04R
JACKSON        FAIR      44  29  55 W7        30.04S
MONTGOMERY     FAIR      48  32  53 W8        30.01R
TROY           FAIR      51  31  46 W9        30.01R
ASHFORD*         N/A     50  32  50 NW7       30.01R
DOTHAN         CLOUDY    57  43  59 MISG      30.00R
PANAMA CITY    FAIR      62  60  93 W12       29.97R

$$





USA.gov is the U.S. government's official web portal to all federal, state and local government web resources and services.